Hourly Data Report for October 05, 2017

All times are specified in Local Standard Time (LST). Add 1 hour to adjust for Daylight Saving Time where and when it is observed.

SALMON ARM CS
BRITISH COLUMBIA

50°42'10.800" N
119°17'26.440" W
350.50 m
116FRMN
71218
WSL

Download Data

Hourly Data (October 2017)
Hourly Data Report for October 5, 2017
Temp Definition
°C
Dew Point Temp Definition
°C
Rel Hum Definition
%
Wind Dir Definition
10's deg

Wind Spd Definition
km/h
Visibility Definition
km
Stn Press Definition
kPa
Hmdx Definition


Wind Chill Definition


Weather Definition


TIME
00:00 1.8 0.2 89 16 5   98.17     LegendNANA
01:00 1.4 0.2 91 18 4   98.18     LegendNANA
02:00 0.8 -0.7 90 17 4   98.18     LegendNANA
03:00 0.8 -0.5 91 19 3   98.20     LegendNANA
04:00 0.1 -0.7 94 20 4   98.22     LegendNANA
05:00 -0.3 -1.2 94 19 4   98.22   -2 LegendNANA
06:00 -0.5 -1.1 96 17 6   98.24   -3 LegendNANA
07:00 0.9 -0.1 93 18 3   98.27     LegendNANA
08:00 3.0 0.5 84 23 2   98.28     LegendNANA
09:00 7.2 3.4 77 23 2   98.24     LegendNANA
10:00 8.8 3.7 70 35 2   98.18     LegendNANA
11:00 11.0 4.6 65 1 4   98.08     LegendNANA
12:00 13.0 4.9 58 36 4   97.96     LegendNANA
13:00 13.8 4.7 54 1 5   97.85     LegendNANA
14:00 15.4 5.7 52 3 4   97.75     LegendNANA
15:00 15.8 6.3 53 35 4   97.66     LegendNANA
16:00 15.5 7.5 59 36 6   97.56     LegendNANA
17:00 10.9 7.3 78 34 1   97.52     LegendNANA
18:00 8.3 6.1 86 20 4   97.52     LegendNANA
19:00 5.9 4.2 89 19 1   97.54     LegendNANA
20:00 5.7 4.3 91 18 4   97.52     LegendNANA
21:00 5.5 3.6 88 20 4   97.52     LegendNANA
22:00 4.2 3.2 93 19 6   97.50     LegendNANA
23:00 2.8 1.4 90 17 4   97.47     LegendNANA

Notes on Data Quality.

Legend

  • E = Estimated
  • M = Missing
  • NA = Not Available
  • ‡ = Partner data that is not subject to review by the National Climate Archives
Date modified: